EHI
0 1 7 13 8 2 0 0 0 0 0 0 0 0 0 0 0 0 0 0 0 0 0 0 1 3 5 11 17 19 17 13 9 5 1 0 0 0 0 0 0 0 0 0 0 0 0 0 0
0 3 8 9 5 1 0 0 0 0 0 0 0 0 0 0 0 0 0 0 0 0 1 2 3 3 5 11 16 16 13 10 6 3 1 0 0 0 0 0 0 0 0 0 0 0 0 0 0
1 4 7 4 1 0 0 0 0 0 0 0 0 0 0 0 0 0 0 0 0 0 2 5 5 3 4 8 12 12 10 7 4 1 0 0 0 0 0 0 0 0 0 0 0 0 0 0 0
2 4 4 1 0 0 0 0 0 0 0 0 0 0 0 0 0 0 0 0 0 0 2 6 8 6 4 5 7 8 8 6 3 1 0 0 0 0 0 0 0 0 0 0 0 0 0 0 0
2 2 1 0 0 0 0 0 0 0 0 1 1 2 1 1 0 0 0 0 0 0 2 6 10 10 6 4 4 5 6 5 2 0 0 0 0 0 0 0 0 0 0 0 0 0 0 0 0
1 0 0 0 0 0 0 0 0 0 0 1 2 4 5 5 4 1 0 0 0 0 1 4 7 9 7 3 2 2 3 3 2 0 1 1 1 1 0 0 0 0 0 0 0 0 0 0 0
0 0 0 0 0 0 0 0 0 0 1 1 3 6 13 17 13 6 2 0 1 1 1 2 3 4 4 3 3 3 2 1 1 0 1 2 2 1 0 0 0 0 0 0 0 0 0 0 0
0 0 0 0 0 0 0 0 0 0 1 1 2 7 23 37 32 19 10 6 5 3 3 3 2 1 1 3 6 6 3 1 0 0 0 1 1 1 0 0 0 0 0 0 0 0 0 0 0
0 0 0 0 0 0 0 0 0 0 1 2 5 15 39 58 54 39 27 20 14 9 7 5 3 2 1 3 5 5 3 1 0 0 0 0 0 0 0 0 0 0 0 0 0 0 0 0 0
0 0 0 0 0 0 0 0 0 0 1 5 15 34 59 73 69 55 44 35 26 18 12 8 5 4 3 3 4 3 2 1 0 0 0 0 0 0 0 0 0 0 0 0 0 0 0 0 0
0 0 0 0 0 0 0 0 0 0 0 5 24 54 75 79 72 60 47 38 31 25 18 11 8 6 5 4 3 3 2 1 0 0 0 0 0 0 0 0 0 0 0 0 0 0 0 0 0
0 0 0 0 0 0 0 0 1 1 0 4 27 61 79 77 68 55 43 36 33 30 23 16 13 10 8 5 4 3 3 1 0 0 0 0 0 0 0 0 0 0 0 0 0 0 0 0 0
0 0 0 0 0 0 0 0 1 2 2 8 29 57 72 70 60 50 43 40 39 37 30 22 17 14 12 8 5 4 3 2 1 1 0 0 0 0 0 0 0 0 0 0 0 0 0 0 0
0 0 0 0 0 0 0 0 1 2 5 14 30 49 60 63 59 53 50 50 48 44 37 29 22 17 15 11 7 6 5 4 4 4 2 1 1 1 1 1 1 0 0 0 0 0 0 0 0
0 0 0 0 0 0 0 0 2 4 9 17 28 40 51 58 59 55 54 54 53 49 44 36 27 20 17 13 10 7 6 5 5 6 5 4 3 3 2 1 1 0 0 0 0 0 0 0 0
0 0 0 0 0 0 0 1 3 7 13 19 27 36 47 55 56 50 49 53 53 50 48 42 31 24 21 17 13 10 7 5 4 6 6 6 5 5 4 3 1 0 0 0 0 0 0 0 0
0 0 0 0 0 0 0 1 4 8 14 20 28 35 42 50 53 49 46 51 52 49 48 44 35 29 25 21 17 14 10 7 6 6 6 6 5 5 4 2 1 0 0 0 0 1 0 0 0
0 0 0 0 0 0 0 1 4 9 13 18 26 32 37 43 50 50 49 52 53 50 47 43 39 33 28 24 21 18 14 11 9 8 7 5 4 3 2 1 0 0 0 0 0 0 0 0 0
0 0 0 0 0 0 0 1 5 9 12 16 21 28 34 38 45 51 53 53 53 51 47 43 42 39 35 31 26 21 17 13 11 10 7 4 2 1 0 0 0 0 0 1 1 1 1 0 0
0 0 0 0 0 0 0 2 5 8 10 13 18 24 30 37 46 53 54 53 53 52 48 45 46 45 42 37 30 23 19 14 12 10 7 4 1 0 0 0 0 1 1 2 2 2 2 1 0
0 0 0 0 0 0 0 1 4 5 6 11 18 24 29 36 47 55 55 52 51 51 48 46 47 47 45 40 31 24 20 17 13 10 7 5 2 0 0 0 1 2 3 3 3 3 4 3 1
0 0 0 0 0 0 0 1 3 4 4 9 19 27 31 35 44 54 57 53 48 45 43 44 46 46 45 40 33 27 23 17 13 11 9 6 4 2 2 1 1 2 3 3 2 3 4 4 2
0 0 0 0 0 0 0 0 1 2 3 8 17 27 33 37 42 51 56 54 45 38 37 40 42 44 43 39 35 30 24 17 13 13 12 10 7 5 3 1 0 1 1 1 1 1 2 3 2
0 0 0 0 0 0 0 0 0 0 1 6 15 26 34 37 41 47 52 52 44 37 36 38 39 41 41 38 34 31 26 21 18 17 15 13 12 9 5 3 2 1 1 1 1 1 1 2 1
0 0 0 0 0 0 0 0 0 0 0 4 15 28 35 36 38 43 46 47 45 41 40 41 42 42 39 34 31 28 25 22 19 17 14 14 13 10 7 5 5 4 3 2 3 3 1 1 1
0 0 0 0 0 0 0 0 0 0 0 3 14 29 38 37 34 37 40 43 46 46 45 46 45 42 38 33 29 24 20 16 13 11 10 11 10 7 5 5 6 5 3 3 5 4 2 2 2
0 0 0 0 0 0 0 0 0 0 2 5 15 28 39 39 34 34 38 41 46 48 46 45 44 40 36 34 28 23 18 13 9 7 6 6 6 4 2 3 4 5 4 4 5 4 3 4 4
0 0 0 0 0 0 0 0 0 1 4 8 16 28 36 37 35 37 40 41 42 43 42 41 40 37 34 31 25 21 18 14 9 5 4 3 4 3 2 2 3 5 5 5 5 4 3 4 4
0 0 0 0 0 0 0 0 0 1 4 9 17 28 35 36 36 40 42 39 35 34 34 35 35 32 29 24 19 17 15 11 7 4 3 2 2 2 3 3 4 5 4 4 5 4 3 5 5
0 0 0 0 0 0 0 0 0 1 3 9 19 29 36 39 39 42 43 37 30 28 30 32 30 27 23 19 16 15 13 9 5 3 2 1 0 1 3 3 4 5 4 3 4 4 4 6 7
Wind_Speed
9 6 5 5 4 7 14 13 11 9 8 8 6 4 6 7 7 9 10 14 15 16 17 15 12 13 13 13 13 13 13 13 13 12 12 12 12 12 11 12 12 13 13 13 14 14 14 14 14
3 3 6 6 2 10 13 11 11 11 8 6 6 5 6 9 8 11 12 14 16 16 16 14 14 13 13 13 13 13 13 13 12 12 12 11 11 11 11 12 12 12 13 13 14 14 14 14 14
4 6 6 1 8 11 12 9 9 8 6 4 5 6 7 8 9 9 13 16 15 14 14 16 14 14 13 13 12 12 12 12 12 12 11 11 11 11 12 12 12 12 13 13 13 14 14 13 13
5 6 5 3 11 10 8 7 6 6 7 5 5 8 8 7 6 10 16 16 15 14 14 17 14 14 13 13 12 12 12 12 12 11 11 11 11 11 12 12 12 12 13 13 13 13 13 13 13
6 6 2 8 10 8 6 5 3 4 5 5 5 9 9 6 8 15 16 15 15 14 14 17 14 14 13 12 12 12 12 11 11 11 11 11 11 11 12 12 12 12 13 13 13 13 13 13 13
5 4 3 8 9 6 6 4 2 4 5 5 6 9 9 8 11 14 15 14 14 13 14 16 14 13 12 12 11 11 11 11 11 11 11 11 11 11 11 12 12 13 13 12 13 13 12 12 12
5 1 5 7 7 7 5 3 2 3 4 4 4 7 9 10 12 13 13 12 12 12 13 14 14 13 11 10 10 11 11 11 11 11 11 11 11 11 12 11 12 12 12 12 12 12 11 11 11
5 2 4 5 6 7 5 2 2 2 4 5 3 4 9 13 13 13 13 12 11 10 11 12 12 12 12 11 10 10 11 10 10 10 11 11 12 12 12 11 11 11 11 11 12 12 11 10 10
6 3 4 5 4 5 3 1 2 1 4 5 2 4 10 18 16 15 13 12 12 11 10 10 11 10 10 10 11 11 11 10 11 10 11 10 9 10 10 12 11 11 11 11 11 11 10 10 10
5 1 6 5 4 5 3 2 1 4 5 6 7 9 15 18 17 17 16 15 15 13 12 9 10 10 9 7 9 7 8 9 7 7 9 6 6 5 8 12 10 10 10 10 10 9 9 7 8
3 3 4 2 4 5 4 2 2 4 3 4 8 14 17 18 17 17 16 15 15 14 12 10 10 9 9 6 6 5 4 5 6 7 6 5 5 6 7 6 8 8 9 8 9 8 5 4 4
3 2 3 4 5 5 5 3 3 5 2 2 6 15 18 19 18 17 16 14 13 13 12 11 9 8 7 6 5 5 5 5 5 6 7 6 4 4 5 4 5 5 4 4 4 3 4 4 4
4 3 4 5 5 5 6 5 4 3 1 3 8 14 17 17 17 15 13 13 13 13 12 11 10 9 7 6 5 5 5 5 5 5 5 5 5 4 5 4 3 4 4 5 4 4 4 4 4
3 5 6 5 4 3 5 4 3 2 2 6 10 13 14 15 16 15 14 13 13 13 13 11 11 10 9 7 6 5 5 5 5 5 6 6 4 4 4 5 4 3 3 3 3 4 4 3 3
6 8 6 3 3 2 6 6 3 1 3 6 9 11 12 13 14 15 15 14 14 13 12 12 11 10 10 9 8 6 5 6 5 5 6 6 5 5 4 4 5 4 4 4 3 4 3 3 3
7 9 7 2 1 2 8 3 3 2 4 6 8 10 10 11 13 13 13 13 13 13 13 12 11 11 10 9 8 6 6 6 5 5 5 7 5 5 5 4 4 4 4 4 4 4 3 3 3
9 7 4 2 0 3 7 4 2 1 4 6 7 8 10 11 12 12 13 13 13 13 13 13 11 11 11 10 8 7 5 5 5 5 5 6 7 7 5 4 3 5 4 4 5 5 4 3 3
4 4 3 2 2 5 6 4 0 1 3 5 6 8 9 10 12 12 13 13 13 12 12 12 12 11 10 8 7 6 6 6 5 6 6 7 6 7 6 5 5 5 4 4 3 3 3 3 4
4 5 4 1 3 6 5 4 1 2 3 4 6 7 8 9 10 11 12 12 13 13 14 13 13 12 10 8 8 8 7 6 6 6 7 8 7 7 6 5 6 6 5 5 6 5 6 5 4
8 8 6 2 1 5 5 5 2 2 3 3 4 6 8 9 10 11 12 13 13 14 14 13 13 12 12 9 7 6 6 5 5 5 6 8 8 8 7 7 6 6 5 6 6 6 5 5 5
9 9 6 4 4 5 7 8 5 4 3 4 4 5 7 9 11 11 12 13 13 13 14 12 12 12 12 10 7 6 5 5 6 7 7 8 9 9 7 8 7 6 7 6 7 7 7 5 5
9 6 6 6 8 4 3 7 3 3 4 5 5 5 6 7 9 10 11 12 12 12 12 12 12 12 11 10 9 10 8 8 7 6 6 6 8 8 8 8 8 7 6 6 8 8 6 7 6
4 1 4 6 7 8 6 8 1 4 3 4 4 4 4 6 8 10 10 11 10 11 11 11 11 11 11 11 11 10 9 7 5 5 6 6 7 8 8 8 8 8 7 7 8 6 8 7 7
5 5 5 7 8 9 5 7 3 1 1 1 2 3 4 6 7 8 9 9 9 9 10 10 11 11 11 11 10 10 10 8 7 7 6 6 6 6 8 8 8 8 7 8 8 7 9 8 7
11 10 8 9 8 5 2 6 2 3 1 2 2 4 5 7 8 8 9 10 9 10 10 10 10 10 10 11 10 10 9 9 9 8 7 7 6 6 8 8 8 8 8 8 7 7 8 8 8
14 14 9 6 5 4 6 6 1 2 1 1 3 6 7 8 8 8 8 9 9 10 10 10 10 9 9 9 8 8 9 7 6 7 6 7 6 6 7 8 8 9 8 8 7 7 7 7 7
11 13 11 8 6 6 4 2 3 3 3 4 6 8 8 8 8 8 7 8 8 8 9 9 9 8 8 8 8 7 7 7 6 6 7 6 5 6 7 7 7 8 7 7 7 6 7 6 7
9 9 7 9 7 8 6 6 3 3 4 6 7 8 9 9 9 8 7 8 7 7 7 7 8 8 8 7 7 6 7 7 6 6 6 6 6 6 6 6 7 7 7 7 7 6 6 6 5
11 10 9 9 8 7 5 2 3 1 3 6 7 8 9 9 9 9 8 8 8 8 8 7 7 7 6 6 6 6 5 5 5 5 5 5 5 6 6 6 6 7 7 6 6 6 5 5 5
12 13 13 10 8 8 8 1 6 1 2 4 7 8 9 9 9 9 9 8 8 8 8 7 6 6 5 5 5 5 4 4 4 5 4 4 4 5 5 5 5 6 6 6 6 6 6 6 6
Wind_Direction
210 219 239 245 223 75 65 63 61 68 67 64 68 49 49 39 27 77 113 134 136 136 133 139 132 127 123 120 120 120 122 123 123 121 119 118 115 114 112 109 106 104 103 103 103 103 103 104 103
227 234 242 244 59 77 71 62 63 62 76 90 87 76 72 67 61 104 130 136 143 138 139 137 132 130 127 124 122 121 122 123 124 123 120 119 117 116 113 110 108 107 107 106 107 106 106 105 105
238 245 268 258 61 63 72 68 73 82 86 88 86 61 53 72 102 122 133 145 145 136 133 127 138 134 131 127 125 125 124 125 124 123 121 120 118 117 115 112 111 111 109 108 108 107 107 107 107
249 233 238 81 75 64 63 75 84 99 91 76 93 91 80 72 106 126 138 149 142 139 140 132 142 137 135 132 130 128 127 126 125 123 122 120 118 117 115 114 113 112 110 110 110 109 109 108 107
249 261 158 88 76 72 71 75 84 72 75 85 91 99 95 83 111 132 146 149 145 146 139 136 143 141 139 136 134 132 131 129 126 124 123 121 119 118 117 114 114 113 112 112 112 111 111 110 111
256 249 102 84 82 78 84 91 102 77 91 102 110 109 95 114 134 144 149 152 149 146 140 134 143 142 141 140 137 137 134 129 128 126 125 122 119 117 116 116 116 117 116 116 116 114 114 113 113
296 345 75 77 85 84 69 71 50 77 102 105 117 112 119 136 141 149 149 152 150 149 143 145 151 148 145 143 144 141 135 131 130 128 125 123 120 119 119 119 119 119 118 119 119 117 117 115 116
303 264 107 84 72 74 75 79 46 12 83 108 153 132 140 147 149 150 150 153 152 153 150 151 156 151 158 154 151 146 139 135 132 130 128 126 126 127 129 130 122 122 122 121 121 118 117 119 120
272 247 88 65 41 51 54 57 95 100 129 142 123 65 118 141 151 154 155 158 159 162 162 162 155 158 164 156 148 154 147 142 145 141 139 154 148 138 146 117 124 126 124 123 122 121 121 128 126
269 294 62 33 6 356 2 326 152 187 177 160 134 111 129 148 159 165 167 168 169 168 169 166 163 163 166 157 152 165 163 153 165 147 152 152 130 132 120 120 131 129 127 128 123 125 147 169 138
282 345 27 3 350 332 317 294 231 240 218 185 171 154 155 163 170 174 174 175 172 169 171 170 170 169 167 164 162 164 157 149 157 148 150 140 146 143 135 141 144 146 154 146 140 165 160 136 112
270 324 324 320 329 311 307 298 259 258 311 64 160 160 166 174 179 179 176 175 169 169 172 173 170 172 176 174 164 167 166 160 157 153 170 156 156 151 138 148 145 157 153 144 154 144 132 126 129
253 287 301 301 296 299 289 275 282 276 270 146 149 163 175 180 180 177 173 171 169 170 174 175 176 175 176 176 186 176 173 168 159 159 168 170 165 161 146 143 156 167 150 159 162 153 143 150 155
304 292 285 287 291 275 279 273 243 259 154 155 162 173 179 179 175 171 171 173 173 175 175 177 180 179 181 183 189 182 181 173 171 171 169 185 176 159 161 163 168 168 171 162 164 157 164 179 160
271 271 261 242 280 288 280 244 221 123 159 170 173 175 176 175 174 176 175 175 175 176 178 179 182 183 186 190 193 190 189 182 181 170 174 186 188 166 179 172 179 171 164 160 179 171 182 186 180
243 247 236 162 315 303 272 270 94 127 182 181 178 175 177 177 181 179 175 173 173 175 178 183 186 184 188 194 198 197 195 188 189 179 180 187 188 183 195 192 185 172 180 179 179 195 185 190 196
222 235 244 172 50 301 269 291 78 176 199 185 179 177 178 178 184 180 177 176 176 178 181 183 187 185 189 192 196 203 196 199 197 190 190 187 193 192 203 205 182 192 193 194 201 181 198 192 203
222 242 239 256 6 300 267 274 216 192 200 184 176 179 181 183 185 181 180 179 178 177 182 186 186 187 188 189 193 200 201 202 205 200 196 196 198 199 205 203 197 209 203 206 216 190 203 212 211
279 267 261 295 342 296 277 277 254 196 196 187 183 186 187 186 178 177 180 180 178 179 184 189 190 186 188 190 194 196 197 200 204 208 200 201 205 201 209 216 197 214 210 211 211 207 201 210 205
241 250 247 224 350 294 287 275 235 207 210 213 203 197 190 182 174 175 181 182 186 187 190 192 193 190 192 192 192 198 196 202 205 210 204 207 206 206 205 216 214 208 211 214 219 214 224 214 204
233 250 261 284 288 238 271 241 200 180 192 201 210 205 192 184 179 176 181 185 189 192 194 195 192 190 193 190 187 185 191 203 205 207 207 207 210 211 216 213 223 214 218 214 217 216 221 226 218
231 237 255 265 267 248 275 282 181 182 201 203 204 199 188 184 181 176 182 186 191 193 192 192 189 190 190 188 195 195 202 211 213 206 201 201 210 212 213 217 221 223 228 222 223 218 224 228 229
244 207 238 256 261 269 234 271 232 172 223 199 191 187 186 178 176 175 181 183 186 188 186 186 186 189 191 194 199 203 213 217 213 203 198 209 210 216 219 219 220 223 232 229 234 226 229 227 232
195 199 211 238 248 248 248 269 261 127 317 257 169 162 171 165 162 165 171 171 174 178 179 178 183 190 191 197 204 209 215 214 210 207 205 211 211 214 219 223 222 224 230 228 228 229 228 237 238
206 220 220 217 220 233 148 254 289 44 351 303 192 160 158 155 155 158 164 168 170 174 174 175 180 186 191 196 202 208 212 212 214 218 216 216 217 217 217 221 221 226 227 228 227 228 235 231 231
210 226 244 260 249 191 177 246 79 84 97 214 163 146 148 152 150 151 157 165 168 170 171 173 177 182 187 196 202 208 213 216 218 220 224 221 223 225 224 221 224 227 227 229 224 231 230 230 232
208 228 249 262 271 271 226 227 209 162 173 160 151 148 149 149 147 148 147 152 157 164 167 170 170 173 182 194 199 206 208 213 216 220 224 228 227 227 224 222 226 227 226 230 231 232 231 229 233
249 225 217 240 247 251 231 234 237 174 165 162 164 160 151 148 149 147 145 145 148 151 154 158 162 171 177 188 195 196 203 205 213 221 223 226 225 228 228 226 227 228 228 228 230 233 230 227 232
195 210 224 234 251 264 251 199 103 179 175 173 170 165 158 156 152 147 145 144 144 146 148 152 157 167 175 182 187 194 198 199 203 213 222 224 223 221 223 228 231 230 228 227 225 228 226 229 233
214 214 212 224 223 245 273 218 110 151 173 180 168 161 159 158 152 149 148 148 149 149 151 152 157 164 168 172 178 186 190 193 200 208 213 216 218 222 222 221 227 234 230 227 222 224 223 224 228